Temp_Advection
nan nan nan nan nan nan nan nan nan nan nan nan nan nan nan nan nan nan nan nan nan nan nan nan nan nan nan nan nan nan nan nan nan nan nan nan nan nan nan nan nan nan nan nan nan
nan -0 -1 -1 -0 0 -0 0 0 0 0 0 -0 -0 -0 0 -2 -2 -2 -1 -0 0 0 0 0 0 0 0 0 0 -0 -0 -0 -0 -0 -0 0 0 0 0 -0 0 0 0 nan
nan -0 -0 -0 -0 -0 -0 -0 0 0 0 0 -0 -0 -0 0 -1 -4 -2 -0 -0 1 0 0 0 0 -0 0 0 0 -0 -0 -0 -0 0 0 0 0 0 -0 -0 0 0 0 nan
nan 0 0 -0 -0 -0 -0 -0 -0 0 0 -0 -0 -0 -0 -0 -1 0 0 0 1 1 0 0 0 -0 -0 -0 0 -0 -0 -0 -0 0 0 0 0 0 0 -0 0 -0 -0 0 nan
nan -0 -0 -0 -0 -0 -0 0 -0 -0 -0 -0 -0 -0 0 -0 -3 -1 0 0 0 -0 0 -0 -0 -0 -0 -0 -0 -0 -0 -0 -0 -0 0 0 0 0 -0 -0 0 -0 0 0 nan
nan -0 -0 -0 -0 -0 -0 -0 -0 -0 -0 0 -0 -0 0 -1 -3 -1 1 0 -1 -0 -0 -1 -1 -1 -0 0 -0 -0 0 -0 -0 0 0 0 0 0 -0 -0 -0 -0 -0 0 nan
nan 0 0 0 0 0 -0 -0 -0 -0 -0 -0 -0 0 -0 -2 -1 0 0 -1 -1 -0 0 -0 -0 -0 0 -0 0 0 0 -0 0 0 -0 -0 0 -0 -1 -0 -0 -0 -0 -0 nan
nan -0 -0 -0 -0 0 0 0 -0 0 0 -0 -0 0 -1 -1 -1 -1 -0 0 -1 -0 -0 -0 0 0 0 0 0 0 0 0 -0 -0 -0 0 0 -0 -0 0 0 -0 -0 -0 nan
nan -0 -0 -0 -0 -0 -0 0 0 -0 0 0 0 -0 -0 -0 -1 -1 1 0 -1 -1 0 0 0 0 0 0 0 0 0 0 -0 0 0 1 0 0 0 0 0 -0 -0 -0 nan
nan -0 -0 -0 -0 -0 -0 -1 -0 0 0 0 -0 -0 -0 -0 -0 -0 -0 -1 -0 -0 -0 -0 -0 -0 -0 -0 -0 -0 0 -0 -0 0 0 0 0 -0 -0 -0 -0 -0 -0 -0 nan
nan -0 -0 -0 -0 -0 -0 -0 -0 -0 0 -0 -0 0 0 -0 -0 -0 -0 -0 -0 -0 -0 -0 -0 -1 -1 -0 0 -0 -0 0 0 0 0 0 0 -0 -0 0 -0 -1 -1 -0 nan
nan -0 -0 -0 -0 -0 -0 0 -0 0 -0 -0 -0 0 -0 0 -0 -1 0 0 -0 -0 0 0 -1 -0 -0 -0 0 -0 -0 0 0 0 0 0 -0 -0 -0 -0 -0 -0 -1 0 nan
nan -0 0 0 -0 -0 0 0 0 0 -0 -0 0 -0 -0 0 -0 -0 -0 -0 -0 -0 0 0 -0 0 0 0 0 0 -0 -0 0 -0 -0 -0 -0 -0 -0 0 -0 -0 -0 -0 nan
nan 0 1 0 0 0 -0 -0 0 -0 -0 0 0 -0 -0 0 -0 -1 -1 0 -0 -0 -1 0 0 1 0 1 -0 0 0 -0 0 0 0 -0 -0 0 -0 -0 -0 -0 1 0 nan
nan -0 0 0 0 0 0 -0 -0 0 -0 -0 -0 -0 0 0 -0 -0 0 -0 -0 -0 -0 0 0 1 1 0 1 -0 0 -0 -0 0 0 -0 0 -0 -0 -0 0 0 0 0 nan
nan 0 -0 -0 0 -0 0 0 -0 0 -0 0 -0 -0 -0 -0 -0 0 0 -1 0 -0 -0 -0 -0 0 0 0 -0 -0 -0 -0 0 0 0 -0 0 -0 -0 -0 -0 -0 0 0 nan
nan 0 -0 -0 0 0 0 -0 0 0 -0 0 0 0 0 -0 -0 0 0 0 0 0 -0 -0 0 0 -0 -0 0 0 0 0 0 0 0 -0 0 -0 0 -0 -0 -0 0 0 nan
nan 0 0 0 0 0 0 -0 1 -0 -0 -0 -0 -0 -0 -0 -0 -0 0 0 -0 -0 0 0 -0 0 0 -0 -0 -0 -0 0 0 0 0 0 -0 0 0 0 0 0 0 0 nan
nan 0 0 0 0 0 -0 0 -0 -0 -0 -0 -0 0 0 0 -0 -0 0 0 -0 0 -0 -0 0 0 -0 -0 -0 -0 -0 -0 -0 0 0 -0 -0 -0 -0 0 -0 0 0 0 nan
nan 0 0 0 0 0 0 0 0 -0 0 -0 0 0 -0 0 -0 -0 -0 0 -0 0 0 -0 0 0 0 -0 -0 -0 -0 -0 0 0 -0 0 -0 0 -0 0 0 0 0 0 nan
nan -0 0 0 0 -0 0 -0 -0 0 -0 0 0 -0 -0 0 -0 -0 0 0 -0 0 -0 0 -0 0 0 0 0 0 -0 -0 -0 0 0 0 0 0 0 0 0 0 0 -0 nan
nan -0 -0 0 -0 0 -0 0 -0 0 -0 -0 -0 0 0 -0 0 0 0 -0 -0 0 -0 0 0 0 0 -0 0 -0 -0 -0 -0 0 -0 0 -0 0 0 0 -0 -0 -0 -0 nan
nan -0 -0 -0 -0 0 -0 -0 -0 0 0 0 0 0 -0 -0 0 0 0 -0 0 -0 -0 -0 -0 0 -0 0 -0 0 0 -0 -0 -0 -0 0 -0 -0 -0 -0 -0 -0 -0 0 nan
nan -0 -1 -0 0 -0 -0 -0 -0 -0 0 -0 0 -0 -0 -0 0 0 0 0 -0 -0 -0 -0 -0 0 0 0 -0 0 0 0 -0 -0 -0 -0 -0 0 -0 0 -0 -0 -0 0 nan
nan 0 -0 -0 0 0 -0 -0 0 0 -0 0 -0 -0 0 -0 -0 0 0 0 -0 -0 -0 -0 -0 0 -0 0 -0 -0 -0 0 0 -0 -0 0 0 -0 -0 -0 -0 -0 -0 0 nan
nan 0 0 -0 -1 -0 0 0 0 0 0 -0 -0 -0 -0 0 -0 -0 -0 0 0 -0 -0 -0 0 0 -0 -0 0 0 0 0 -0 0 0 -0 -1 -0 -0 0 -0 -0 0 0 nan
nan nan nan nan nan nan nan nan nan nan nan nan nan nan nan nan nan nan nan nan nan nan nan nan nan nan nan nan nan nan nan nan nan nan nan nan nan nan nan nan nan nan nan nan nan
Wind_Speed
23 23 21 21 21 19 20 21 19 21 20 20 19 19 21 22 30 32 27 20 23 20 6 7 26 22 19 12 9 8 2 8 12 9 4 8 7 12 5 8 9 8 9 6 5
24 25 25 25 24 24 23 22 22 22 22 20 20 19 19 22 26 40 37 22 23 22 19 16 21 26 13 13 10 6 6 10 4 5 4 10 8 11 6 6 8 10 13 13 9
25 23 26 26 27 26 24 25 24 23 21 20 20 18 18 18 27 33 40 29 23 24 20 20 22 22 13 11 11 7 9 5 4 8 7 7 6 5 6 3 6 6 8 11 14
26 25 25 28 27 25 25 25 25 23 21 18 19 18 19 13 9 4 7 22 30 25 22 21 22 22 12 11 15 4 10 5 10 9 5 5 4 2 5 4 6 5 3 6 17
27 26 27 28 26 26 24 24 22 20 20 20 20 18 17 15 32 15 3 2 9 30 33 31 25 26 17 19 11 11 2 17 14 9 5 5 5 5 9 12 9 10 5 3 10
27 25 27 26 24 24 22 22 20 19 20 21 19 18 19 22 33 31 31 27 13 18 38 38 21 28 17 5 17 8 18 10 15 22 8 4 5 7 9 17 18 15 13 8 6
27 27 27 26 25 23 22 22 21 21 21 21 20 20 20 38 25 18 15 28 19 9 32 40 24 25 12 6 15 7 7 13 18 5 4 9 8 14 19 16 14 12 18 15 13
29 30 28 26 25 24 23 23 23 23 24 24 22 21 21 32 31 33 33 30 20 13 25 35 32 23 7 11 10 14 3 6 7 14 6 10 13 3 20 25 27 25 24 23 20
31 30 26 26 24 24 25 27 26 28 22 19 17 18 15 10 15 24 28 25 18 15 20 29 35 13 9 9 6 12 8 7 2 15 10 11 2 6 7 8 15 18 21 27 29
30 29 27 26 25 25 26 28 28 16 6 3 6 4 13 7 17 22 22 24 18 19 21 23 24 13 11 7 15 20 15 6 10 4 12 9 8 5 8 6 12 15 18 18 23
31 28 28 27 25 26 27 26 8 3 4 7 11 14 5 9 10 14 15 22 18 16 9 27 14 25 26 18 1 12 9 5 8 3 5 9 4 8 15 13 13 19 22 26 29
32 30 31 28 24 23 22 8 15 10 12 14 23 27 27 17 8 10 20 14 11 11 5 13 22 17 12 15 7 14 12 5 2 3 3 3 6 10 9 10 19 24 28 30 26
33 30 29 27 26 24 14 9 6 7 5 8 11 7 7 17 8 12 29 11 9 12 10 13 11 15 15 14 13 9 16 6 5 4 3 2 4 4 2 3 5 9 17 20 22
30 32 33 28 17 8 14 14 4 9 4 2 2 2 7 7 6 14 17 9 7 10 9 6 10 16 17 17 18 5 5 9 8 4 3 1 2 2 2 5 6 8 10 6 1
30 32 24 16 11 11 8 8 5 6 3 2 2 5 7 1 7 4 20 15 3 7 3 1 14 10 21 7 13 4 2 8 4 4 2 1 2 3 1 5 4 7 10 13 15
31 22 20 18 12 8 5 4 4 3 2 2 2 0 2 3 4 9 7 18 4 9 12 4 8 5 1 13 7 10 12 11 5 2 0 1 2 2 3 2 1 2 9 12 13
29 13 17 16 11 5 5 5 3 1 2 6 3 2 2 2 2 3 3 5 4 6 3 4 5 3 12 12 7 4 5 2 2 1 3 1 2 3 1 1 4 4 6 10 12
21 12 16 14 11 7 7 3 7 3 3 0 4 4 4 5 6 4 2 6 8 6 4 4 3 2 2 3 6 5 3 4 5 5 3 1 4 1 2 3 5 3 6 9 10
17 9 15 15 10 9 5 4 1 3 4 7 4 4 4 7 5 4 6 4 5 5 5 5 4 3 6 3 1 3 1 3 6 3 2 3 3 3 1 3 3 4 6 11 9
15 8 10 15 16 12 3 4 2 2 3 3 5 8 5 5 4 3 6 3 4 4 1 3 7 5 3 4 7 2 6 3 3 3 3 2 3 4 5 5 3 2 9 6 7
11 5 11 17 10 5 3 3 3 6 3 2 7 5 7 5 3 4 3 3 3 3 4 3 4 2 3 1 5 2 2 5 4 1 3 1 3 4 12 10 6 3 7 7 5
7 3 15 19 4 1 2 7 5 4 3 3 2 6 4 2 5 4 3 1 1 2 4 0 5 4 2 1 2 2 3 3 3 4 2 1 3 1 8 7 5 4 8 8 5
6 6 10 17 4 4 5 3 2 6 5 5 4 4 2 2 4 3 2 4 5 4 4 3 2 4 2 3 3 2 3 3 4 3 3 3 3 2 3 4 7 11 14 11 7
5 4 7 8 3 4 6 5 5 3 3 2 3 3 3 6 6 3 3 5 6 4 9 6 3 3 4 3 3 4 4 5 4 2 4 4 4 1 2 4 9 16 14 12 6
7 2 4 4 3 8 3 3 5 6 7 12 5 6 2 3 3 3 3 1 5 7 4 4 4 3 3 3 2 4 5 7 6 4 4 1 5 5 6 6 13 18 15 9 4
4 4 6 6 13 8 8 7 8 4 5 5 5 6 6 4 1 5 5 2 2 5 3 4 2 2 2 3 3 3 5 8 4 2 6 3 12 10 18 16 15 15 11 6 4
10 10 5 7 6 5 5 6 5 4 5 7 2 4 10 5 1 5 5 7 6 4 2 3 4 2 1 2 1 3 6 7 3 3 5 6 8 6 7 6 11 9 5 4 3
Wind_Direction
319 315 310 310 309 307 308 306 305 305 303 301 300 301 303 298 259 250 261 247 248 246 218 231 203 202 191 192 184 176 188 213 209 183 208 168 179 204 207 202 186 202 236 234 214
317 316 317 312 309 301 302 299 298 301 298 298 300 298 300 298 287 254 241 241 245 244 229 213 206 201 194 184 186 181 213 214 207 181 196 170 178 172 168 173 207 213 230 241 233
326 316 317 308 306 305 302 299 294 293 292 293 292 292 292 298 306 265 240 236 248 244 230 217 207 204 211 174 183 193 229 191 218 193 156 160 160 185 158 181 202 201 232 235 206
322 315 314 317 311 308 303 299 297 297 294 292 292 289 289 275 266 53 167 232 242 225 217 208 204 194 212 200 189 184 219 218 219 205 143 150 158 161 207 187 154 109 5 243 200
323 322 319 316 315 312 307 303 300 296 293 291 289 287 281 260 246 224 185 253 211 220 207 202 200 196 205 203 177 218 218 222 234 244 229 179 208 226 243 230 234 261 267 285 233
322 322 319 319 317 311 307 301 296 294 289 289 284 277 266 258 260 265 271 267 271 223 207 200 208 195 204 217 194 195 215 248 226 240 234 208 234 196 247 245 248 251 253 244 234
322 318 319 319 317 314 309 305 300 294 293 287 285 276 262 249 257 247 270 248 261 219 202 201 200 187 197 188 220 218 180 220 236 212 234 199 253 228 231 249 250 240 245 248 239
328 318 319 319 316 314 311 306 302 298 294 285 276 274 251 267 263 259 254 257 241 224 213 204 200 202 166 165 153 196 174 183 220 204 221 157 232 247 231 227 237 239 246 252 247
323 324 319 319 315 311 310 307 303 302 288 284 266 236 262 274 247 263 247 238 227 233 198 207 203 205 179 142 137 190 207 189 270 203 191 197 236 210 185 202 233 242 246 252 255
326 325 320 317 317 313 311 310 314 293 269 305 201 192 243 249 273 264 258 221 230 200 187 186 198 201 205 179 192 187 200 189 203 191 197 203 230 283 260 238 249 257 263 256 253
323 323 323 321 317 316 313 328 352 308 245 232 250 221 231 295 289 262 220 201 211 181 192 181 188 205 194 189 74 156 166 149 203 184 151 222 232 237 259 269 253 258 263 261 258
328 330 324 318 315 308 307 285 319 279 290 269 271 258 256 270 296 270 198 191 186 198 196 168 213 193 183 192 205 166 178 177 102 132 160 129 251 241 231 238 236 242 253 260 264
328 325 322 316 310 303 290 274 274 299 280 287 252 225 231 214 239 275 184 191 173 173 159 196 196 180 175 186 191 191 183 170 149 144 74 260 271 250 247 281 308 269 260 264 268
335 332 328 321 310 320 279 297 263 308 258 33 251 182 145 148 249 218 193 181 186 148 136 127 173 163 181 210 185 157 164 129 139 137 180 310 272 300 87 58 43 46 73 79 30
337 338 348 355 324 314 334 345 308 287 312 252 69 137 149 243 322 186 183 210 223 110 153 23 132 161 189 178 152 109 101 106 104 97 111 350 124 263 161 55 25 13 61 77 84
342 349 350 344 353 5 9 329 314 43 311 36 170 219 82 140 229 135 141 227 94 73 91 67 68 102 199 111 102 117 77 54 44 70 83 238 191 282 132 123 118 36 73 76 84
345 356 357 353 350 1 329 337 31 11 306 7 347 316 82 255 214 111 146 144 108 117 88 39 24 49 101 81 109 153 98 89 95 119 206 20 123 251 263 289 159 130 79 72 76
348 351 1 1 354 355 338 29 56 340 355 9 306 291 223 153 94 63 108 71 37 86 98 95 80 9 81 110 156 183 172 159 154 174 176 46 221 242 316 171 151 115 82 74 70
350 352 9 14 3 344 352 45 331 322 321 321 308 62 52 48 91 37 48 65 16 21 101 121 76 4 104 150 143 196 79 144 104 28 106 212 271 337 2 84 81 71 72 52 49
353 354 353 352 342 328 66 3 290 255 305 296 0 24 75 68 63 58 40 349 337 32 226 149 104 77 135 82 46 145 135 78 21 122 240 257 263 175 189 180 226 69 45 34 26
355 353 351 341 340 19 39 318 305 298 272 336 14 73 69 86 37 54 53 351 267 30 92 112 79 110 161 201 161 99 67 57 106 84 166 158 260 201 182 182 167 81 28 11 347
356 14 344 351 58 4 340 308 297 297 221 270 292 53 63 107 45 77 106 253 254 279 55 41 119 113 129 20 111 83 144 133 127 220 61 119 277 344 198 174 187 298 341 353 334
358 316 343 4 34 9 313 304 254 17 10 7 27 57 54 77 92 43 47 8 12 32 151 179 63 106 14 36 38 175 175 121 104 90 194 138 267 32 113 233 256 303 326 337 331
10 15 343 7 25 329 345 349 338 333 311 293 56 84 88 39 30 122 63 11 356 64 76 93 77 129 164 168 136 180 172 177 127 134 161 229 307 121 203 258 286 300 316 326 323
23 14 341 326 332 328 266 296 326 8 352 20 36 31 82 83 55 87 85 93 32 355 42 80 95 75 72 111 133 180 177 184 190 167 171 251 203 267 261 269 282 301 309 314 291
47 1 336 294 306 324 8 0 21 356 28 349 72 18 47 90 58 174 135 147 176 21 53 13 110 89 73 56 220 240 207 198 220 199 262 314 289 250 266 274 278 291 292 286 265
24 8 333 299 333 346 352 316 350 341 59 41 351 80 48 352 347 104 116 102 125 123 103 78 125 92 278 357 12 311 221 180 190 208 187 209 234 259 282 258 273 288 260 265 254
Height
1506 1503 1500 1497 1495 1493 1490 1489 1488 1486 1484 1483 1482 1481 1479 1477 1475 1475 1473 1476 1481 1485 1486 1487 1490 1494 1497 1499 1502 1503 1507 1503 1499 1503 1499 1499 1502 1504 1505 1507 1509 1509 1509 1509 1509
1503 1500 1497 1493 1490 1488 1486 1484 1482 1481 1480 1478 1477 1476 1476 1473 1469 1461 1467 1474 1477 1480 1483 1485 1487 1492 1494 1496 1499 1499 1500 1496 1495 1494 1495 1496 1499 1500 1502 1504 1506 1506 1506 1506 1508
1499 1496 1493 1490 1486 1483 1481 1479 1477 1475 1474 1474 1473 1472 1472 1470 1463 1449 1461 1468 1471 1475 1479 1482 1485 1489 1490 1491 1494 1494 1490 1491 1492 1492 1493 1496 1496 1499 1499 1502 1502 1503 1503 1503 1505
1496 1491 1488 1484 1481 1478 1475 1473 1471 1470 1468 1469 1468 1468 1468 1468 1465 1450 1453 1461 1466 1470 1474 1478 1481 1484 1486 1484 1488 1491 1490 1490 1491 1492 1493 1495 1496 1497 1499 1499 1500 1502 1502 1502 1503
1490 1486 1483 1479 1476 1473 1470 1468 1466 1465 1464 1463 1463 1463 1464 1462 1447 1449 1448 1452 1457 1459 1463 1471 1474 1477 1478 1480 1486 1487 1488 1489 1489 1492 1493 1494 1496 1497 1496 1498 1499 1501 1502 1502 1502
1486 1482 1478 1474 1471 1467 1464 1462 1460 1459 1458 1458 1457 1458 1459 1452 1446 1447 1447 1448 1452 1454 1457 1463 1466 1472 1476 1478 1481 1482 1487 1488 1488 1490 1492 1492 1495 1495 1492 1496 1497 1498 1500 1501 1501
1482 1477 1473 1469 1466 1462 1459 1457 1455 1453 1452 1451 1451 1452 1451 1437 1439 1442 1443 1444 1446 1448 1451 1458 1466 1469 1470 1476 1478 1482 1486 1487 1487 1489 1488 1490 1492 1485 1491 1494 1494 1495 1497 1498 1499
1478 1473 1468 1464 1460 1457 1454 1451 1449 1446 1445 1445 1445 1446 1436 1431 1434 1436 1437 1438 1441 1444 1450 1457 1465 1467 1467 1471 1476 1482 1485 1488 1480 1485 1486 1488 1483 1480 1484 1487 1489 1491 1493 1495 1496
1473 1468 1464 1459 1456 1452 1448 1445 1442 1439 1436 1436 1436 1438 1431 1427 1425 1424 1430 1433 1441 1440 1446 1454 1462 1461 1467 1464 1475 1479 1478 1482 1479 1476 1482 1483 1482 1478 1482 1483 1485 1486 1488 1490 1492
1469 1464 1459 1455 1451 1447 1444 1440 1435 1431 1431 1431 1431 1436 1427 1424 1422 1420 1422 1428 1433 1434 1442 1449 1457 1457 1459 1463 1461 1462 1473 1477 1476 1475 1476 1480 1481 1478 1479 1481 1482 1481 1482 1484 1485
1465 1460 1455 1450 1447 1444 1439 1436 1435 1431 1428 1427 1426 1423 1421 1420 1418 1417 1419 1425 1429 1430 1429 1440 1447 1438 1434 1450 1455 1460 1470 1473 1473 1473 1475 1477 1481 1479 1478 1476 1477 1476 1476 1477 1478
1460 1455 1450 1446 1442 1439 1436 1435 1434 1432 1422 1419 1417 1418 1418 1420 1417 1415 1418 1422 1423 1422 1431 1435 1430 1438 1448 1453 1456 1459 1465 1472 1473 1472 1475 1480 1478 1473 1471 1470 1469 1469 1471 1471 1473
1457 1451 1445 1440 1436 1433 1432 1430 1429 1429 1426 1413 1412 1412 1413 1416 1414 1413 1416 1417 1418 1420 1432 1424 1428 1437 1442 1449 1456 1457 1458 1468 1469 1474 1478 1478 1473 1467 1465 1465 1465 1466 1467 1468 1467
1452 1446 1439 1433 1429 1428 1427 1426 1428 1429 1423 1414 1411 1410 1411 1413 1410 1409 1412 1414 1417 1418 1428 1430 1431 1432 1442 1445 1452 1461 1456 1460 1468 1472 1474 1478 1471 1465 1466 1467 1466 1465 1464 1464 1462
1449 1442 1436 1429 1429 1428 1428 1427 1427 1427 1428 1415 1410 1411 1411 1413 1414 1406 1410 1417 1412 1415 1424 1428 1425 1434 1439 1452 1447 1460 1460 1461 1469 1475 1476 1477 1476 1463 1466 1467 1468 1467 1465 1464 1464
1446 1440 1435 1431 1428 1428 1427 1425 1426 1429 1419 1410 1409 1409 1412 1413 1415 1410 1411 1415 1414 1416 1424 1427 1430 1439 1441 1447 1454 1462 1466 1473 1478 1480 1480 1477 1476 1463 1465 1466 1468 1468 1467 1466 1465
1443 1439 1435 1431 1430 1428 1427 1426 1432 1421 1414 1415 1409 1407 1412 1410 1409 1408 1415 1408 1414 1422 1430 1434 1440 1440 1438 1452 1462 1464 1463 1476 1477 1483 1473 1484 1482 1465 1467 1466 1467 1468 1467 1466 1465
1440 1438 1436 1432 1430 1429 1428 1428 1434 1416 1418 1415 1412 1409 1409 1405 1406 1409 1411 1413 1418 1419 1433 1436 1446 1447 1445 1449 1456 1464 1459 1462 1469 1476 1475 1484 1473 1464 1467 1465 1467 1467 1466 1465 1464
1438 1438 1436 1433 1431 1429 1430 1440 1424 1423 1420 1414 1410 1402 1404 1407 1408 1414 1417 1423 1423 1423 1427 1440 1445 1447 1448 1452 1455 1461 1465 1466 1485 1499 1485 1475 1471 1467 1466 1466 1467 1466 1465 1463 1463
1437 1436 1436 1434 1431 1429 1431 1423 1425 1423 1421 1419 1407 1403 1410 1413 1416 1418 1423 1430 1427 1424 1425 1434 1446 1452 1452 1452 1456 1455 1462 1467 1480 1483 1467 1476 1474 1460 1468 1467 1467 1465 1463 1463 1463
1438 1435 1436 1434 1430 1429 1430 1428 1425 1421 1419 1418 1410 1411 1418 1419 1420 1423 1431 1432 1428 1428 1426 1432 1440 1457 1454 1453 1457 1459 1461 1470 1475 1480 1469 1468 1457 1458 1457 1461 1464 1462 1461 1461 1461
1440 1440 1435 1432 1434 1436 1432 1430 1426 1422 1420 1418 1417 1414 1418 1421 1425 1426 1428 1426 1426 1427 1433 1435 1446 1456 1458 1456 1454 1456 1461 1466 1475 1482 1495 1490 1461 1456 1455 1459 1460 1459 1459 1459 1458
1444 1441 1436 1433 1437 1437 1433 1430 1427 1423 1421 1419 1417 1416 1419 1422 1427 1428 1428 1428 1427 1427 1430 1433 1448 1454 1457 1456 1457 1458 1462 1465 1470 1477 1488 1476 1457 1455 1456 1457 1457 1456 1455 1455 1454
1448 1448 1442 1439 1441 1439 1434 1430 1427 1425 1423 1421 1420 1419 1421 1426 1425 1430 1431 1431 1429 1429 1429 1431 1447 1448 1453 1453 1456 1461 1461 1462 1464 1474 1476 1475 1461 1455 1455 1457 1455 1453 1452 1451 1450
1452 1454 1454 1449 1441 1440 1438 1434 1429 1427 1423 1422 1422 1424 1422 1427 1428 1433 1433 1433 1433 1433 1432 1435 1450 1450 1452 1453 1454 1455 1457 1461 1464 1463 1462 1460 1464 1456 1454 1453 1449 1448 1447 1446 1446
1457 1457 1454 1451 1446 1441 1438 1435 1431 1429 1428 1428 1428 1428 1425 1429 1431 1432 1433 1434 1434 1436 1437 1441 1454 1451 1455 1455 1456 1455 1455 1457 1460 1461 1463 1462 1459 1450 1448 1448 1446 1444 1443 1443 1443
1461 1459 1458 1452 1449 1445 1445 1441 1434 1431 1431 1431 1430 1430 1430 1433 1431 1430 1430 1432 1433 1437 1442 1445 1452 1454 1464 1457 1457 1459 1452 1454 1456 1456 1455 1462 1452 1448 1446 1444 1442 1441 1441 1441 1442